Regional Weather Roundup
Issued by NWS

Home | Current Version | Previous Version | Graphics & Text | Print | Product List | Glossary On
Versions: 1 2 3 4 5 6 7 8 9 10 11 12 13 14 15 16 17 18 19 20 21 22 23 24 25 26 27 28 29 30 31 32 33 34 35 36 37 38 39 40 41 42 43 44 45 46 47 48 49 50
000
ASUS43 KOAX 310010
RWRNE

WEATHER ROUNDUP FOR NEBRASKA
NATIONAL WEATHER SERVICE OMAHA NE
600 PM CST FRI JAN 30 2015

NOTES: SATELLITE DATA IS BEING USED TO AUGMENT CLOUD COVER ABOVE
       12000 FEET.
       "FAIR" INDICATES FEW OR NO CLOUDS BELOW 12,000 FEET WITH NO
       SIGNIFICANT WEATHER AND/OR OBSTRUCTIONS TO VISIBILITY.

  * THESE STATIONS DO NOT REPORT WEATHER SUCH AS RAIN...SNOW OR FOG.

NEZ001>004-019>022-054>056-310100-
NEBRASKA PANHANDLE

CITY           SKY/WX    TMP DP  RH WIND       PRES   REMARKS
SCOTTSBLUFF    CLOUDY    39  31  72 E5        30.11R
6HR MIN TEMP:  37; 6HR MAX TEMP:  44;

ALLIANCE       CLOUDY    37  26  64 SE6       30.09S WCI  32
6HR MIN TEMP:  37; 6HR MAX TEMP:  49;

CHADRON        CLOUDY    41  25  53 N5        30.12R
6HR MIN TEMP:  41; 6HR MAX TEMP:  52;

KIMBALL        CLOUDY    37  27  66 NE5       30.08S WCI  34
SIDNEY         CLOUDY    40  28  62 N7        30.09S
6HR MIN TEMP:  40; 6HR MAX TEMP:  46;

$$

NEZ057>060-069>072-079>082-310100-
SOUTHWEST NEBRASKA

CITY           SKY/WX    TMP DP  RH WIND       PRES   REMARKS
NORTH PLATTE   CLOUDY    43  27  53 S8        30.14F
6HR MIN TEMP:  42; 6HR MAX TEMP:  49;

IMPERIAL       CLOUDY    44  29  55 S13       30.12S
6HR MIN TEMP:  44; 6HR MAX TEMP:  53;

LEXINGTON      CLOUDY    45  27  50 S15       30.19F
MCCOOK         CLOUDY    42  34  73 S12       30.18F
6HR MIN TEMP:  42; 6HR MAX TEMP:  49; 6HR PCP: TRACE;

OGALLALA       CLOUDY    46  33  59 S9        30.09F
$$

NEZ005>010-023>029-035>040-094-310100-
NORTH CENTRAL NEBRASKA

CITY           SKY/WX    TMP DP  RH WIND       PRES   REMARKS
VALENTINE      PTCLDY    40  25  55 S7        30.11S
6HR MIN TEMP:  40; 6HR MAX TEMP:  53;

AINSWORTH      PTCLDY    40  27  58 S9        30.12S WCI  35
BROKEN BOW     CLOUDY    42  26  53 S10       30.18S
6HR MIN TEMP:  41; 6HR MAX TEMP:  48;

O`NEILL        PTCLDY    41  28  59 S7        30.17S
ORD            MOCLDY    39  24  55 S9        30.19R WCI  33
6HR MIN TEMP:  35; 6HR MAX TEMP:  46;

THEDFORD       CLOUDY    43  29  58 S7        30.14S
$$

NEZ041-046>049-061>064-073>077-083>087-310100-
SOUTH CENTRAL NEBRASKA

CITY           SKY/WX    TMP DP  RH WIND       PRES   REMARKS
GRAND ISLAND   CLOUDY    41  25  53 S13       30.25F
6HR MIN TEMP:  37; 6HR MAX TEMP:  45;

AURORA         CLOUDY    40  25  55 S9        30.25S WCI  34
HASTINGS       CLOUDY    42  24  49 S12       30.25S
6HR MIN TEMP:  37; 6HR MAX TEMP:  45;

HEBRON         CLOUDY    40  25  53 S8        30.29F
HOLDREGE       CLOUDY    42  25  51 S9        30.22F
KEARNEY *      CLOUDY    41  25  52 S13       30.23S
YORK           CLOUDY    39  27  60 S15       30.25F WCI  31
$$

NEZ011>018-030>034-042>045-310100-
NORTHEAST NEBRASKA

CITY           SKY/WX    TMP DP  RH WIND       PRES   REMARKS
NORFOLK        PTCLDY    38  27  64 SE7       30.21F WCI  33
6HR MIN TEMP:  36; 6HR MAX TEMP:  44;

ALBION         MOCLDY    38  25  58 S7        30.21F WCI  33
BLAIR          MOCLDY    34  24  67 S8        30.29F WCI  27
COLUMBUS *     MOCLDY    39  25  56 S9        30.26F WCI  33
FREMONT        PTCLDY    37  26  64 S7        30.29F WCI  32
TEKAMAH        MOCLDY    34  24  67 SE13      30.29F WCI  25
6HR MIN TEMP:  32; 6HR MAX TEMP:  41;

WAYNE          PTCLDY    35  27  73 S10       30.22F WCI  27
$$

NEZ050>053-065>068-078-088>093-310100-
SOUTHEAST NEBRASKA

CITY           SKY/WX    TMP DP  RH WIND       PRES   REMARKS
LINCOLN        MOCLDY    34  24  67 S9        30.31F WCI  27
6HR MIN TEMP:  34; 6HR MAX TEMP:  42;

OMAHA EPPLEY   CLOUDY    34  24  67 S13       30.32F WCI  25
6HR MIN TEMP:  29; 6HR MAX TEMP:  37;

BEATRICE       CLOUDY    38  25  61 S10       30.32F WCI  31
FALLS CITY     CLOUDY    34  21  59 SE7       30.35F WCI  28
6HR MIN TEMP:  30; 6HR MAX TEMP:  40;

NEBRASKA CITY  MOCLDY    33  20  60 S9        30.33F WCI  25
PLATTSMOUTH    MOCLDY    32  22  66 SE7       30.32F WCI  26
$$

NEZ044-045-051>053-067-310100-
OMAHA AREA

CITY           SKY/WX    TMP DP  RH WIND       PRES   REMARKS
OMAHA EPPLEY   CLOUDY    34  24  67 S13       30.32F WCI  25
6HR MIN TEMP:  29; 6HR MAX TEMP:  37;

BLAIR          MOCLDY    34  24  67 S8        30.29F WCI  27
FREMONT        PTCLDY    37  26  64 S7        30.29F WCI  32
MILLARD        PTCLDY    36  25  64 SE7       30.32F WCI  30
OFFUTT AFB     PTCLDY    31  23  73 SE8       30.32F WCI  24
PLATTSMOUTH    MOCLDY    32  22  66 SE7       30.32F WCI  26
WAHOO          MOCLDY    33  22  66 SE7       30.29F WCI  26
$$



USA.gov is the U.S. government's official web portal to all federal, state and local government web resources and services.